Estación municipal de Cànoves i Samalús (Vallès Oriental, P.N.del Montseny)

Consulta los datos en tiempo real de la estación municipal de Cànoves i Samalús





Hora UTC 18:25
Temperatura 12.9 ºC
Humedad 96.2 %
Presión 1009.5 hPa
Pluja 15.5 mm
Velocidad viento 3.8 km/h
Dirección viento SSW
Radiación solar 4.9 W/m²

Webcam

Datos diarios 2026-05-09



Hora UTC (invierno +1h; verano +2h)
Temperatura (ºC) Humedad (%) Presión (hPa) Velocidad viento (km/h) Precipitación (mm) Radiación solar (W/m²)
Hora UTC Aire Humedad Presión Vel. Dir. Vel. Max Dir. Intent. máx 5 min. Rad. Sol.
00:05 13.4 82.6 1014.2 1.4 NNW 1.4 NNW 0.0 0.1
00:10 13.4 82.6 1014.3 0.9 NNW 5.3 NNE 0.0 0.1
00:15 13.4 82.7 1014.2 1.0 NNW 4.2 NNW 0.0 0.1
00:20 13.5 82.9 1014.1 0.3 WNW 2.8 SW 0.0 0.1
00:25 13.5 83.3 1014.1 0.4 S 3.2 WNW 0.0 0.1
00:30 13.5 83.3 1014.0 0.3 N 2.8 NNW 0.0 0.1
00:35 13.5 83.3 1014.0 2.6 NE 5.3 N 0.0 0.1
00:40 13.6 82.4 1014.1 0.9 NE 3.9 NE 0.0 0.1
00:45 13.7 82.2 1014.1 1.4 W 4.2 SW 0.0 0.1
00:50 13.7 82.4 1014.1 0.4 WNW 3.5 W 0.0 0.1
00:55 13.7 82.5 1014.1 0.0 NNE 0.0 E 0.0 0.1
01:00 13.7 82.8 1014.0 1.1 N 3.5 NNE 0.0 0.1
01:05 13.8 83.1 1014.0 2.7 NNW 4.9 NNW 0.0 0.1
01:10 13.9 83.2 1013.9 4.0 N 5.6 NNE 0.0 0.1
01:15 13.9 82.9 1013.7 3.0 N 6.7 NNE 0.0 0.1
01:20 13.8 82.8 1013.7 1.8 N 6.0 NNE 0.0 0.1
01:25 13.6 82.9 1013.7 0.6 NE 3.2 NNE 0.0 0.1
01:30 13.5 83.3 1013.8 0.8 ESE 2.1 ESE 0.0 0.1
01:35 13.4 84.1 1013.7 0.2 S 1.4 S 0.0 0.1
01:40 13.3 84.5 1013.6 0.0 NNE 0.0 S 0.0 0.1
01:45 13.2 85.0 1013.6 1.9 NNW 3.5 NW 0.0 0.1
01:50 13.1 85.5 1013.5 1.7 NW 3.9 NW 0.0 0.1
01:55 12.9 85.6 1013.4 1.4 NW 2.5 NW 0.0 0.1
02:00 12.8 86.1 1013.4 1.0 N 3.9 NNE 0.0 0.1
02:05 12.7 86.4 1013.3 1.8 NNW 3.9 N 0.0 0.1
02:10 12.6 87.1 1013.2 2.4 NNW 4.9 NNW 0.0 0.1
02:15 12.6 87.8 1013.2 2.3 NNW 4.2 N 0.0 0.1
02:20 12.5 88.0 1013.1 3.4 NNW 4.9 NW 0.0 0.1
02:25 12.4 88.4 1013.1 2.4 NNW 3.9 NW 0.0 0.1
02:30 12.4 88.6 1013.1 0.4 N 2.8 N 0.0 0.1
02:35 12.4 89.2 1013.2 1.5 N 3.5 N 0.0 0.1
02:40 12.5 89.7 1013.2 3.0 NNW 4.6 N 0.0 0.1
02:45 12.6 89.7 1013.2 4.1 N 5.6 N 0.0 0.1
02:50 12.6 89.4 1013.1 3.6 NNW 5.6 NNE 0.0 0.1
02:55 12.6 89.2 1013.0 2.8 NNW 4.6 NNW 0.0 0.1
03:00 12.6 89.2 1013.0 4.1 NNW 5.3 NNW 0.0 0.1
03:05 12.7 89.0 1013.0 2.4 N 3.9 NNW 0.0 0.1
03:10 12.7 88.6 1013.1 2.2 NNE 3.5 NNE 0.0 0.1
03:15 12.8 88.6 1013.0 4.7 N 6.4 N 0.0 0.1
03:20 12.8 88.3 1013.0 2.5 NW 5.6 NW 0.0 0.1
03:25 12.9 88.5 1013.0 1.5 NNW 2.5 NW 0.0 0.1
03:30 12.9 88.4 1013.0 1.2 N 3.5 NNW 0.0 0.1
03:35 12.9 88.3 1013.1 0.9 N 2.8 NNE 0.0 0.1
03:40 12.9 88.0 1013.1 1.7 NNE 4.2 NE 0.0 0.1
03:45 12.9 87.5 1013.0 3.3 N 5.6 N 0.0 0.1
03:50 12.9 87.2 1013.0 3.0 N 8.5 NNW 0.0 0.1
03:55 12.9 86.9 1013.0 2.9 NW 7.8 NW 0.0 0.1
04:00 13.0 86.9 1012.9 3.0 NNW 5.6 NNW 0.0 0.1
04:05 13.0 86.7 1012.8 1.9 NNW 4.6 NW 0.0 0.1
04:10 12.9 86.6 1012.8 0.2 N 2.1 NNE 0.0 0.1
04:15 12.9 86.7 1012.8 1.0 N 3.5 NNE 0.0 0.2
04:20 12.8 86.6 1012.9 0.3 NNW 3.2 N 0.0 0.3
04:25 12.7 86.8 1012.9 0.0 NNE 0.0 NNE 0.0 0.8
04:30 12.7 87.1 1012.9 0.5 ENE 3.5 ENE 0.0 0.7
04:35 12.7 87.9 1012.9 1.9 NNE 4.2 NNE 0.0 0.6
04:40 12.7 87.9 1013.0 1.3 NNW 4.2 NW 0.0 0.9
04:45 12.8 88.1 1013.0 1.7 NNE 3.5 NNW 0.0 1.6
04:50 12.9 88.7 1013.0 1.7 SE 4.2 SE 0.0 2.7
04:55 13.0 89.0 1013.0 2.8 NE 7.8 NE 0.0 4.2
05:00 13.1 89.2 1013.0 1.2 NE 3.2 ENE 0.0 6.3
05:05 13.1 89.5 1013.1 2.2 N 5.6 NNE 0.0 8.2
05:10 13.1 89.8 1013.1 2.5 N 4.9 NNE 0.1 9.5
05:15 13.1 89.9 1013.1 2.1 N 5.3 NNW 0.0 9.2
05:20 13.1 90.2 1013.1 1.9 N 5.3 NNE 0.0 12.4
05:25 13.1 90.7 1012.9 3.8 N 6.4 NNW 0.0 20.4
05:30 13.2 90.9 1012.9 2.3 NNW 4.9 NNW 0.1 32.7
05:35 13.2 91.2 1012.9 2.1 NNW 5.3 N 0.0 34.8
05:40 13.3 91.5 1012.9 1.4 NNW 3.2 NNW 0.0 39.5
05:45 13.4 91.7 1012.9 2.9 NW 5.3 NW 0.0 56.0
05:50 13.4 91.8 1012.8 2.7 NNW 5.3 NNW 0.0 70.4
05:55 13.5 91.9 1012.9 1.6 NNW 3.9 N 0.0 79.0
06:00 13.6 92.1 1012.9 0.6 NNE 4.9 NNE 0.0 88.6
06:05 13.8 92.4 1012.9 0.0 NNE 0.0 SE 0.0 110.5
06:10 14.0 92.3 1013.0 0.0 NNE 0.0 SE 0.0 126.4
06:15 14.1 92.2 1013.0 0.9 E 3.5 ENE 0.0 120.8
06:20 14.2 91.9 1013.0 1.2 E 4.2 E 0.0 123.5
06:25 14.3 91.6 1013.0 1.0 ENE 3.9 ENE 0.0 144.4
06:30 14.3 91.3 1012.8 2.8 NE 7.1 NE 0.0 170.4
06:35 14.3 90.4 1012.8 5.5 E 9.5 E 0.0 176.7
06:40 14.5 90.3 1012.8 2.4 E 5.6 ESE 0.0 185.8
06:45 14.6 89.6 1012.8 4.5 E 8.5 ENE 0.0 191.1
06:50 14.6 88.9 1012.9 4.5 ENE 12.4 ENE 0.0 209.3
06:55 14.8 88.6 1012.9 3.3 ENE 9.2 E 0.0 234.0
07:00 15.0 88.4 1012.9 3.9 ENE 13.1 ENE 0.0 254.8
07:05 15.0 87.5 1012.8 4.8 ENE 15.5 E 0.0 272.1
07:10 15.3 87.9 1012.9 3.6 E 10.9 E 0.0 291.7
07:15 15.4 87.1 1012.9 5.1 ENE 12.7 E 0.0 286.6
07:20 15.4 86.0 1012.8 7.0 NE 13.8 ENE 0.0 298.6
07:25 15.4 85.6 1012.8 6.7 ENE 12.4 NE 0.0 307.2
07:30 15.5 84.8 1012.7 7.3 ENE 15.2 NE 0.0 308.9
07:35 15.5 84.4 1012.5 6.1 NE 12.7 ENE 0.0 329.2
07:40 15.7 84.1 1012.4 6.7 NE 16.6 NE 0.0 343.3
07:45 15.9 84.4 1012.4 6.2 E 12.4 E 0.0 363.4
07:50 16.1 84.2 1012.4 6.2 E 17.6 E 0.0 371.4
07:55 16.2 83.1 1012.3 6.8 ENE 14.8 NE 0.0 374.3
08:00 16.2 82.2 1012.3 5.0 ENE 13.8 E 0.0 406.7
08:05 16.5 82.1 1012.2 7.9 E 13.8 ENE 0.0 427.7
08:10 16.6 80.4 1012.1 7.4 ENE 14.8 ENE 0.0 443.0
08:15 16.8 80.1 1012.0 7.4 E 19.8 E 0.0 465.6
08:20 16.9 79.1 1012.0 9.4 ENE 17.3 E 0.0 443.8
08:25 16.7 79.0 1012.0 11.6 E 20.8 E 0.0 418.1
08:30 16.6 79.5 1012.0 8.1 NE 20.5 ENE 0.0 418.6
08:35 16.7 80.0 1012.1 7.4 E 13.8 E 0.0 427.8
08:40 17.0 80.0 1012.2 7.8 E 23.6 ESE 0.0 399.1
08:45 16.8 80.3 1012.3 8.1 E 18.0 E 0.0 374.0
08:50 16.9 79.5 1012.3 9.1 E 20.8 E 0.0 366.3
08:55 16.7 78.8 1012.3 9.0 NE 19.8 NE 0.0 362.7
09:00 16.9 79.1 1012.3 6.3 E 19.4 E 0.0 373.8
09:05 16.9 78.4 1012.1 9.0 ENE 16.2 E 0.0 430.9
09:10 17.2 77.8 1012.2 6.6 E 17.3 ENE 0.0 522.9
09:15 17.5 76.6 1012.3 8.6 ENE 19.4 NE 0.0 591.2
09:20 17.8 75.8 1012.3 8.7 E 22.2 ENE 0.0 694.9
09:25 18.1 76.4 1012.5 10.4 E 17.6 ESE 0.0 703.8
09:30 18.0 76.1 1012.5 10.2 ENE 18.7 ENE 0.0 519.4
09:35 17.7 76.9 1012.6 11.6 E 20.5 E 0.0 498.6
09:40 17.7 77.5 1012.6 13.2 ESE 22.9 ESE 0.0 474.8
09:45 17.6 76.5 1012.5 10.7 ENE 19.8 NE 0.0 453.3
09:50 17.7 74.5 1012.6 11.8 E 20.8 E 0.0 458.6
09:55 17.7 74.7 1012.7 10.1 E 22.6 ENE 0.0 487.0
10:00 17.8 75.8 1012.7 10.5 ESE 19.4 E 0.0 500.0
10:05 18.0 73.8 1012.6 9.2 E 18.7 E 0.0 466.3
10:10 17.9 73.7 1012.6 9.2 E 21.2 ENE 0.0 424.4
10:15 17.9 74.3 1012.5 9.4 E 20.8 ESE 0.0 404.7
10:20 18.1 75.3 1012.5 6.7 E 24.3 ESE 0.0 422.0
10:25 18.1 73.4 1012.7 10.3 E 24.7 E 0.0 389.4
10:30 18.0 71.5 1012.8 11.8 E 24.0 E 0.0 363.2
10:35 17.8 72.0 1012.7 10.2 E 20.8 ESE 0.0 295.9
10:40 17.8 72.2 1012.7 9.6 E 21.2 SE 0.0 233.6
10:45 17.6 73.7 1012.7 9.1 E 19.8 E 0.0 182.7
10:50 17.3 75.3 1012.7 9.7 E 19.8 ENE 0.0 162.4
10:55 17.1 76.3 1012.6 11.5 ESE 18.7 E 0.0 198.1
11:00 17.0 77.4 1012.8 6.1 E 13.1 ESE 0.0 205.8
11:05 17.2 77.1 1012.7 7.8 ENE 17.3 ESE 0.0 195.0
11:10 17.1 76.4 1012.8 10.6 ESE 19.8 E 0.0 147.2
11:15 17.0 76.9 1012.9 7.1 E 13.8 E 0.0 134.3
11:20 17.0 77.5 1012.9 7.3 E 16.6 ESE 0.0 140.5
11:25 16.9 77.0 1012.9 7.5 E 20.8 ESE 0.0 137.9
11:30 17.0 76.2 1012.9 8.2 ENE 16.9 ENE 0.0 129.7
11:35 16.9 75.7 1012.7 6.3 ENE 14.8 NE 0.0 132.1
11:40 16.9 76.0 1012.7 7.2 ENE 15.9 NNE 0.0 141.6
11:45 17.0 76.2 1012.7 5.0 NE 12.7 NE 0.0 157.6
11:50 17.0 75.8 1012.7 6.9 ENE 16.2 ENE 0.0 231.2
11:55 17.2 75.3 1012.6 5.8 ENE 12.4 NE 0.0 284.9
12:00 17.4 75.2 1012.3 6.0 E 13.4 ENE 0.0 308.0
12:05 17.5 72.4 1012.0 7.1 E 15.5 E 0.0 296.0
12:10 17.6 72.2 1011.8 7.4 ENE 15.5 NE 0.0 255.5
12:15 17.6 71.8 1011.7 9.0 ENE 16.2 ENE 0.0 215.0
12:20 17.5 72.7 1011.7 10.1 E 18.7 E 0.0 216.1
12:25 17.4 72.5 1011.6 8.7 NE 20.1 E 0.0 206.8
12:30 17.4 73.1 1011.5 8.8 E 18.0 E 0.0 180.5
12:35 17.3 73.1 1011.4 6.6 ENE 15.5 NE 0.0 161.6
12:40 17.3 73.9 1011.3 5.9 E 16.9 ESE 0.0 149.3
12:45 17.2 74.1 1011.0 8.7 NE 18.7 N 0.0 136.6
12:50 17.2 73.7 1010.8 7.8 NE 19.4 NE 0.0 123.1
12:55 17.2 74.9 1010.8 6.5 ENE 14.1 NE 0.0 132.0
13:00 17.1 75.9 1010.9 7.3 E 16.9 ENE 0.0 145.3
13:05 17.0 75.8 1011.0 7.6 E 18.7 E 0.0 145.9
13:10 17.0 76.1 1011.0 8.8 E 27.5 E 0.0 156.8
13:15 16.9 76.0 1011.1 7.4 ENE 19.1 ENE 0.0 149.9
13:20 16.9 75.4 1011.2 8.7 ENE 18.7 ENE 0.0 134.4
13:25 16.8 75.1 1011.2 9.0 ENE 15.9 E 0.0 118.3
13:30 16.8 75.8 1011.3 4.1 E 9.9 ESE 0.0 107.8
13:35 16.8 75.9 1011.4 5.5 E 12.7 E 0.0 98.5
13:40 16.7 76.1 1011.5 5.4 E 12.4 E 0.0 79.6
13:45 16.6 76.2 1011.6 4.1 ESE 10.9 ESE 0.0 56.4
13:50 16.6 76.6 1011.8 4.1 E 8.1 ESE 0.0 48.2
13:55 16.6 77.1 1012.0 3.0 SE 5.6 ESE 0.0 44.6
14:00 16.4 77.0 1012.1 5.1 E 9.5 SE 0.0 41.6
14:05 16.4 76.0 1012.0 6.0 ENE 12.4 E 0.0 35.5
14:10 16.5 75.9 1011.8 3.3 ENE 7.1 NE 0.0 27.4
14:15 16.4 76.2 1011.7 4.3 ENE 8.8 ENE 0.0 21.4
14:20 16.3 78.8 1011.7 3.9 ENE 10.6 E 0.2 17.2
14:25 16.0 81.1 1011.5 4.8 ENE 10.9 NE 0.1 14.7
14:30 15.6 83.6 1011.5 3.8 NE 9.5 ENE 0.1 12.3
14:35 15.3 85.2 1011.1 4.1 NNE 9.2 ENE 0.0 11.9
14:40 15.1 86.3 1010.7 3.4 NNE 8.5 NNW 0.0 13.4
14:45 15.0 87.2 1010.3 3.0 NNE 12.4 NE 0.0 16.3
14:50 14.9 88.0 1009.9 5.3 NNE 19.1 NNE 0.0 21.5
14:55 14.7 88.6 1009.6 4.0 NNE 13.4 NE 0.1 30.7
15:00 14.7 89.2 1009.3 4.7 NNE 11.6 NNE 0.3 46.4
15:05 14.6 89.9 1009.2 4.7 NE 12.0 NE 0.4 62.9
15:10 14.5 90.6 1009.0 7.0 NE 18.4 NNE 0.5 51.9
15:15 14.4 91.3 1009.0 6.8 ENE 15.5 NE 0.2 32.1
15:20 14.4 92.0 1009.1 5.7 ENE 16.6 NE 0.1 25.2
15:25 14.3 92.4 1009.5 8.0 E 17.3 ENE 0.1 23.1
15:30 14.3 92.7 1010.1 7.9 ESE 15.2 ESE 0.2 20.6
15:35 14.3 93.0 1010.6 5.9 SSE 10.2 SSE 0.2 17.2
15:40 14.3 93.3 1011.0 5.9 SSE 11.6 SE 0.2 11.4
15:45 14.3 93.6 1011.2 3.1 SSE 6.4 SSE 0.1 5.8
15:50 14.3 93.7 1011.4 4.6 S 10.2 SSE 0.3 2.4
15:55 14.2 93.8 1011.5 7.1 SSW 11.6 SSW 0.4 5.2
16:00 14.1 94.0 1011.8 6.4 S 10.2 S 0.4 10.8
16:05 14.1 94.2 1012.0 8.0 S 15.2 SE 0.4 6.5
16:10 14.0 94.5 1012.0 5.8 S 12.7 SSE 0.9 11.4
16:15 14.0 94.6 1011.9 5.4 SW 14.1 W 1.3 7.4
16:20 13.9 94.8 1011.8 6.3 SSW 13.4 S 2.1 5.6
16:25 13.9 95.0 1011.7 2.3 SW 6.4 SW 1.2 5.6
16:30 13.8 95.1 1011.5 1.0 W 3.9 WNW 0.6 4.8
16:35 13.8 95.3 1011.4 2.7 NW 4.9 NNW 0.4 4.4
16:40 13.8 95.4 1011.2 0.4 N 3.2 NNW 0.3 3.9
16:45 13.9 95.6 1011.0 1.3 NNW 3.5 NNW 0.6 3.9
16:50 13.9 95.5 1010.8 1.2 NNW 3.9 NW 0.6 4.3
16:55 13.8 95.4 1010.6 2.1 NW 4.6 NNW 0.5 4.7
17:00 13.7 95.5 1010.4 1.8 N 3.5 NW 0.5 5.5
17:05 13.8 95.6 1010.2 2.8 NNE 8.8 NNW 0.4 6.8
17:10 13.6 95.3 1009.9 2.9 ENE 7.4 E 0.4 7.6
17:15 13.4 95.2 1009.6 2.8 NE 8.5 ENE 0.3 7.9
17:20 13.3 95.4 1009.1 3.6 NNE 12.0 N 0.3 8.7
17:25 13.3 95.5 1009.0 5.0 ENE 13.8 NE 0.2 8.6
17:30 13.3 95.7 1008.9 7.2 E 15.2 ENE 0.1 7.7
17:35 13.3 95.7 1009.0 6.1 E 16.9 E 0.0 6.2
17:40 13.2 95.6 1008.9 8.3 E 15.2 ENE 0.1 5.3
17:45 13.1 95.6 1008.8 6.5 ENE 16.2 E 0.0 4.6
17:50 13.0 95.7 1008.7 5.5 ENE 10.9 ESE 0.0 4.1
17:55 13.0 95.8 1009.0 2.8 SE 7.4 SSE 0.1 4.0
18:00 12.9 95.8 1009.1 4.8 SE 9.2 ESE 0.0 5.3
18:05 12.9 96.0 1009.3 4.3 S 7.4 SSE 0.1 5.2
18:10 12.9 96.0 1009.4 1.3 SW 4.2 SSW 0.0 6.0
18:15 12.9 96.0 1009.4 3.3 W 5.6 NW 0.0 6.2
18:20 12.8 96.1 1009.4 3.1 WSW 4.6 SW 0.0 5.6
18:25 12.9 96.2 1009.5 3.8 SSW 6.4 SW 0.0 4.9
Máxima 18.1 96.2 1014.3 13.2 ESE 27.5 E 2.1 703.8
Mínima 12.4 71.5 1008.7
Total 15.5